Location: Ústí nad Labem
(50.6611°N, 14.0531°E)
Time: 22:21:00
(UTC+02:00)

Envisat - Pass Details

Date: 07 March 2024
Orbit: 762 x 764 km, 98.3° (Epoch: 13 April)

Event Time Altitude Azimuth Distance (km) Brightness Sun altitude
Rises 05:53:05 0° 0° (N) 3,243 6.3 -7.4°
Reaches altitude 10° 05:57:31 10° 324° (NW) 2,310 5.1 -6.7°
Maximum altitude 05:58:33 11° 312° (NW) 2,265 5.0 -6.5°
Drops below altitude 10° 05:59:36 10° 300° (WNW) 2,307 5.0 -6.3°
Enters shadow 06:01:27 - 281° (W) 2,574 5.1 -6.0°
